EW7216 Weather Reports


Display with metric or nautical units.
time (UTC)temp
F
wind
direction
speed
MPH
gust
MPH
rain 1hr
in
rain 24hr
in
rain mn
in
humidity
%
barometer
mb
20260504100556 67 122 1.0 2.0 0.00 0.00 0.00 43 1025.4
20260504081628 63 127 0.0 3.0 0.00 0.00 0.00 45 1025.6
20260504080558 63 129 0.0 3.0 0.00 0.00 0.00 47 1025.5
20260504050601 53 148 4.0 7.0 0.00 0.00 0.00 78 1024.4
20260504045552 54 154 1.0 3.0 0.00 0.00 0.00 75 1024.4
20260504044542 54 151 1.0 6.0 0.00 0.00 0.00 73 1024.3
20260504043531 53 138 0.0 3.0 0.00 0.00 0.00 74 1024.3
20260504042521 54 150 2.0 6.0 0.00 0.00 0.00 73 1024.1
20260504041612 54 146 3.0 6.0 0.00 0.00 0.00 76 1024.2
20260504040622 53 150 5.0 6.0 0.00 0.00 0.00 81 1024.0
20260504035553 52 154 2.0 6.0 0.00 0.00 0.00 82 1024.0
20260504034603 53 0.0 1.0 0.00 0.00 0.00 82 1023.8
20260504033553 53 131 0.0 2.0 0.00 0.00 0.00 81 1023.7
20260504032523 53 154 1.0 2.0 0.00 0.00 0.00 81 1023.7
20260504031613 53 136 1.0 2.0 0.00 0.00 0.00 81 1023.8
20260504030604 54 141 0.0 1.0 0.00 0.00 0.00 80 1023.8
20260504025553 54 152 0.0 2.0 0.00 0.00 0.00 79 1023.8
20260504024603 54 150 1.0 3.0 0.00 0.00 0.00 79 1023.9
20260504023533 54 136 0.0 1.0 0.00 0.00 0.00 78 1023.8
20260504022523 54 144 1.0 2.0 0.00 0.00 0.00 78 1023.9
20260504021614 54 0.0 0.0 0.00 0.00 0.00 77 1024.0
20260504020624 54 0.0 0.0 0.00 0.00 0.00 77 1023.9
20260504015615 54 152 2.0 3.0 0.00 0.00 0.00 77 1024.0
20260504014544 54 131 0.0 1.0 0.00 0.00 0.00 75 1024.0
20260504013534 56 0.0 1.0 0.00 0.00 0.00 71 1023.9
20260504012524 54 148 1.0 3.0 0.00 0.00 0.00 74 1023.8
20260504011615 55 129 1.0 2.0 0.00 0.00 0.00 73 1023.8
20260504010605 55 133 1.0 2.0 0.00 0.00 0.00 73 1023.8
20260504005555 55 145 0.0 2.0 0.00 0.00 0.00 71 1023.8
20260504004545 53 147 0.0 2.0 0.00 0.00 0.00 78 1023.9
20260504003535 52 0.0 0.0 0.00 0.00 0.00 84 1023.9
20260504002525 53 311 1.0 1.0 0.00 0.00 0.00 86 1024.1
20260504001616 53 309 2.0 3.0 0.00 0.00 0.00 85 1024.2
20260504000606 53 118 1.0 2.0 0.00 0.00 0.00 84 1024.4
20260503235657 53 285 1.0 2.0 0.00 0.00 0.00 84 1024.3
20260503234547 53 187 1.0 2.0 0.00 0.00 0.00 82 1024.4
20260503233536 53 272 1.0 3.0 0.00 0.00 0.00 82 1024.5
20260503232526 53 302 3.0 4.0 0.00 0.00 0.00 83 1024.6
20260503231516 53 282 3.0 4.0 0.00 0.00 0.00 83 1024.8
20260503230607 53 305 4.0 6.0 0.00 0.00 0.00 84 1024.7
20260503225558 54 306 4.0 7.0 0.00 0.00 0.00 84 1024.7
20260503224548 53 304 3.0 6.0 0.00 0.00 0.00 84 1024.9
20260503223538 54 280 4.0 4.0 0.00 0.00 0.00 84 1024.9
20260503222529 54 294 4.0 7.0 0.00 0.00 0.00 83 1024.9
20260503221517 54 278 4.0 7.0 0.00 0.00 0.00 83 1025.0
20260503220609 54 303 4.0 6.0 0.00 0.00 0.00 82 1025.0
20260503215619 54 305 4.0 7.0 0.00 0.00 0.00 79 1024.7
20260503214549 54 316 6.0 9.0 0.00 0.00 0.00 84 1024.7
20260503213538 53 294 5.0 9.0 0.00 0.00 0.00 85 1024.6
20260503212549 54 290 5.0 8.0 0.00 0.00 0.00 84 1024.7
20260503211519 54 300 6.0 8.0 0.00 0.00 0.00 83 1024.9
20260503210609 54 285 5.0 8.0 0.00 0.00 0.00 82 1025.0
20260503205600 54 304 5.0 8.0 0.00 0.00 0.00 80 1024.8
20260503204550 55 288 5.0 7.0 0.00 0.00 0.00 77 1024.7
20260503203540 55 286 3.0 4.0 0.00 0.00 0.00 73 1024.6
20260503202530 54 301 3.0 6.0 0.00 0.00 0.00 75 1024.6
20260503201519 55 299 3.0 6.0 0.00 0.00 0.00 80 1024.5
20260503200630 55 300 4.0 6.0 0.00 0.00 0.00 79 1024.7
20260503195601 55 276 5.0 7.0 0.00 0.00 0.00 78 1024.5
20260503194551 55 291 4.0 7.0 0.00 0.00 0.00 76 1024.5
20260503193541 56 329 4.0 7.0 0.00 0.00 0.00 74 1024.5
20260503192531 56 304 4.0 7.0 0.00 0.00 0.00 74 1024.3
20260503191541 56 302 5.0 8.0 0.00 0.00 0.00 76 1024.2
20260503190611 56 295 6.0 9.0 0.00 0.00 0.00 77 1024.2
20260503185602 56 299 5.0 9.0 0.00 0.00 0.00 76 1024.2
20260503184552 57 264 6.0 9.0 0.00 0.00 0.00 74 1024.2
20260503183542 58 303 7.0 10.0 0.00 0.00 0.00 71 1024.0
20260503182532 59 319 7.0 11.0 0.00 0.00 0.00 69 1023.8
20260503181522 59 310 5.0 9.0 0.00 0.00 0.00 68 1023.7
20260503180613 60 289 6.0 10.0 0.00 0.00 0.00 67 1023.7
20260503175603 60 296 6.0 9.0 0.00 0.00 0.00 66 1023.5
20260503174553 61 302 5.0 8.0 0.00 0.00 0.00 65 1023.5
20260503173543 61 269 4.0 6.0 0.00 0.00 0.00 63 1023.5
20260503172532 62 292 5.0 9.0 0.00 0.00 0.00 61 1023.3
20260503171523 62 277 5.0 7.0 0.00 0.00 0.00 61 1023.2
20260503170613 63 294 4.0 7.0 0.00 0.00 0.00 61 1023.3
20260503150616 64 312 9.0 15.0 0.00 0.00 0.00 56 1024.2
20260503130518 65 289 9.0 16.0 0.00 0.00 0.00 56 1024.7
20260503110518 64 297 6.0 13.0 0.00 0.00 0.00 55 1025.1